Reflectivity
-20 -20 -20 -20 -20 -20 -20 -20 -20 -20 -20 -20 -20 -20 -20 -20 -20 -20 -20 -20 -20 -20 -20 -20 -20 -20 -20 -20 -20 -20 -20 -20 -20 -20 -20 -20 -20 -20 -20 -20 -20 -20 -20 -20
-20 -20 -20 -20 -20 -20 -20 -20 -20 -20 -20 -20 -20 -20 -20 -20 -20 -20 -20 -20 -20 -20 -20 -20 -20 -20 -20 -20 -20 -20 -20 -20 -20 -20 -20 -20 -20 -20 -20 -20 -20 -20 -20 -20
-20 -20 -20 -20 -20 -20 -20 -20 -20 -20 -20 -20 -20 -20 -20 -20 -20 -20 -20 -20 -20 -20 -20 -20 -20 -20 -20 -20 -20 -20 -20 -20 -20 -20 -20 -20 -20 -20 -20 -20 -20 -20 -20 -20
-20 -20 -20 -20 -20 -20 -20 -20 -20 -20 -20 -20 -20 -20 -20 -20 -20 -20 -20 -20 -20 -20 -20 -20 -20 -20 -20 -20 -20 -20 -20 -20 -20 -20 -20 -20 -20 -20 -20 -20 -20 -20 -20 -20
-20 -20 -20 -20 -20 -20 -20 -20 -20 -20 -20 -20 -20 -20 -20 -20 -20 -20 -20 -20 -20 -20 -20 -20 -20 -20 -20 -20 -20 -20 -20 -20 -20 -20 -20 -20 -20 -20 -20 -20 -20 -20 -20 -20
-20 -20 -20 -20 -20 -20 -20 -20 -20 -20 -20 -20 -20 -20 -20 -20 -20 -20 -20 -20 -20 -20 -20 -20 -20 -20 -13 2 -12 -20 11 -16 -6 -20 -20 -20 -20 -20 -20 -20 -20 -20 -20 -20
-20 -20 -20 -20 -20 -20 -20 -20 -20 -20 -20 -20 -20 -20 -20 -20 -20 -20 -20 -20 -20 -20 -20 -20 -20 -20 -20 -20 -20 -5 -20 -20 -20 -20 -20 -20 -20 -20 -20 -20 -20 -20 -20 -20
-20 -20 -20 -20 -20 -20 -20 -20 -20 -20 -20 -20 -20 -20 -20 -20 -20 -20 -20 -20 -20 -20 -20 -20 -20 -20 -20 -20 -20 -20 -20 -20 -20 -20 -20 -20 -20 -7 7 -18 -20 -20 -20 -20
-20 -20 -20 -20 -20 -20 -20 -20 -20 -20 -20 -20 -20 -20 -20 -20 -20 -20 -20 -20 -20 -20 -20 -20 -20 -19 -20 -20 -20 -20 -20 -20 -20 -17 -18 7 12 15 11 -19 -20 -20 -1 -20
4 -20 -20 -20 -20 -20 -20 -20 -20 -10 -18 -20 -20 -20 -20 -20 -0 -8 -20 -20 -20 -20 -20 -20 -20 -20 -20 -20 -20 -20 -20 -19 -20 -20 -14 4 19 13 -16 -20 -20 -8 8 8
19 19 -18 -18 -20 -20 -9 -18 -20 -16 20 18 -13 -20 10 -1 9 -10 -2 -20 -20 -20 -20 -20 -20 -20 -20 -20 -20 -8 -1 4 12 5 2 11 9 4 2 -1 10 -16 -20 -20
-17 25 -2 -18 -15 -17 -20 12 -15 11 12 17 17 18 16 20 -0 -20 -2 -20 -20 -20 -20 -20 -20 -20 -18 -15 4 15 31 20 27 23 16 24 27 21 20 10 -7 -0 -19 -20
-20 -18 8 -2 -18 -13 12 1 -15 -13 5 -15 -7 10 18 7 10 26 14 12 8 -6 -19 12 9 -1 -5 15 28 35 29 32 30 33 34 24 4 -3 -4 -19 -20 -20 -20 -20
-11 4 -20 -20 -20 -16 -3 -16 7 -4 -16 -20 -20 -20 -10 11 13 -15 1 16 7 14 11 8 23 37 35 38 38 36 37 36 29 16 13 16 9 -5 -20 -20 -20 -20 -20 -20
-20 -20 -20 -2 -20 -20 2 -13 -11 -13 -20 -20 -20 -20 -20 -2 -3 -20 -0 -12 1 10 5 -2 17 19 18 15 18 25 34 34 22 16 9 -11 -20 -20 -20 -20 -20 -20 -20 -20
6 -12 6 -20 -14 16 17 -16 -20 -20 -20 -20 -20 -20 -20 -20 -20 -20 -20 -20 -19 7 -4 9 -3 3 12 12 13 0 11 2 2 -5 -18 -20 -20 -20 -20 -20 -20 -20 -20 -20
9 1 20 10 14 15 16 -6 -20 -20 -20 -20 -20 -20 -20 -20 -20 -20 -20 -20 -20 -19 -3 -3 2 -2 1 -1 11 11 -17 -20 -20 -18 -20 -6 -7 4 -20 -20 -20 -20 -20 -20
4 15 18 16 14 16 -14 -20 -20 -20 -20 -20 -20 -20 -20 -20 -20 -20 -20 -20 -20 -20 -16 -6 -11 -13 -20 -11 -9 -16 -19 -14 -20 -20 -8 19 20 20 -19 -20 -20 -20 -20 -20
-20 15 12 14 -3 -8 -20 -20 -20 -20 -20 -20 -20 -20 -20 -20 -20 -20 -20 -20 -20 -20 -20 -20 -20 -20 -20 -20 -20 -18 -20 -11 -20 8 27 25 13 9 -4 -20 -20 -20 -20 -20
-14 -0 13 20 6 -10 -20 -20 -20 -20 -20 -20 -20 -20 -20 -20 -20 -20 -20 -20 -20 -20 -20 -20 -20 -20 -20 -20 -20 -20 -19 -4 18 13 24 18 7 1 -20 -20 -20 -20 -20 -20
7 20 21 -7 7 -20 -20 -20 -20 -20 -20 -20 -20 -20 -20 -20 -20 -20 -20 -20 -20 -20 -20 -20 -20 10 -10 -15 -20 -19 -12 11 8 16 17 17 -6 -20 -20 -20 -20 -20 -20 -20
-17 -13 -10 6 10 -20 -20 -20 -20 -20 -20 -20 -20 -20 -20 -20 -20 -20 -20 -20 -20 -20 -20 -20 -20 -20 -20 -20 -20 -15 13 16 18 11 5 5 -2 -20 -20 -20 -20 -20 -20 -20
-20 -20 -20 -20 -20 -20 -20 -20 -20 -20 -20 -20 -20 -20 -20 -20 -20 -20 -18 -20 -20 -20 -20 -20 -20 -20 -20 -19 -17 4 13 15 12 -6 -17 -20 -20 -20 -20 -20 -20 -20 -20 -20
-18 -1 8 -20 -20 -20 -20 -20 -20 -20 -20 -20 -20 -20 -20 -20 -20 -20 -20 15 20 16 -20 -20 -20 -20 -19 -2 18 16 12 -6 -18 -20 -20 -20 -20 -20 -20 -20 -20 -20 -20 -20
-7 -15 -17 -20 -20 -20 -20 -20 -20 -20 -20 -20 -20 -20 -20 -20 -20 -20 -20 -0 -13 5 -20 -20 -20 -11 -6 7 7 7 10 9 4 -20 -20 -20 -20 -20 -20 -20 -20 -20 -20 -20
-14 -20 -20 -20 -20 -20 -20 -20 -20 -20 -20 -20 -20 -20 -20 -20 -20 -20 -20 -20 -14 -1 -20 -20 -20 -20 -19 -20 -4 5 11 -10 -20 -20 -20 -20 -20 -20 -20 -20 -20 -20 -20 -20
Wind_Speed
2 3 9 14 12 7 4 6 8 4 8 7 12 17 15 13 5 9 10 9 14 17 8 6 10 12 12 12 13 13 12 10 9 8 8 6 5 4 4 4 6 6 6 6
2 11 8 7 5 8 9 14 14 7 8 6 7 22 17 15 13 10 11 9 14 9 9 9 13 14 17 16 14 12 12 11 8 6 3 4 5 4 4 4 6 6 6 6
11 6 3 4 5 5 7 12 6 13 5 8 8 27 9 7 5 7 7 8 8 16 15 13 15 17 15 16 15 13 11 10 7 7 8 6 8 5 4 4 5 5 7 6
11 8 15 17 10 7 15 9 12 11 3 6 4 17 3 4 11 7 9 7 8 8 9 11 14 15 17 14 11 11 10 9 8 8 11 13 8 8 3 4 5 6 6 6
9 6 6 5 10 7 9 8 6 5 5 4 4 6 4 8 7 8 8 9 9 11 15 16 16 14 12 13 12 10 11 9 9 8 12 10 9 9 7 7 8 7 5 6
5 2 4 8 6 6 1 1 2 2 3 10 6 9 23 2 8 6 5 6 9 5 7 8 10 13 11 11 12 11 12 9 8 10 10 14 15 12 10 6 6 5 5 4
2 4 3 4 5 5 5 6 3 4 4 14 9 8 18 9 11 9 13 15 15 11 6 12 16 15 16 15 13 11 13 11 10 12 11 12 12 11 12 9 6 6 5 4
3 4 6 2 5 5 6 10 7 7 6 8 2 7 2 5 9 10 9 8 11 12 8 7 9 12 15 15 13 13 13 12 10 12 12 11 12 8 7 8 7 5 5 4
2 5 4 3 3 6 0 3 4 6 10 4 8 8 6 9 18 15 13 12 10 7 7 9 10 11 14 13 12 14 15 13 13 12 11 11 10 10 10 9 8 6 6 7
4 5 3 5 1 1 2 1 4 3 4 6 6 4 2 13 13 11 13 9 8 8 7 5 8 12 9 10 12 13 13 14 14 13 11 9 10 10 11 10 9 9 8 6
5 3 5 3 1 4 0 5 4 1 4 3 3 3 7 10 9 10 7 3 5 6 7 7 6 5 8 11 11 10 11 13 11 11 12 11 9 10 10 9 9 9 8 6
6 3 4 8 7 4 1 2 8 4 3 3 2 1 4 6 7 6 9 5 4 9 11 8 7 6 5 8 11 11 9 10 10 10 12 12 10 9 10 10 10 10 9 6
5 4 2 8 2 1 2 2 3 3 2 5 4 4 12 7 10 8 13 9 4 5 7 13 7 6 5 5 2 7 9 10 9 10 10 10 9 9 10 10 10 9 9 8
2 6 6 10 10 3 3 5 7 4 3 3 6 4 6 10 12 12 11 10 9 10 9 11 15 14 12 8 7 6 8 9 10 10 10 10 8 9 9 9 10 9 8 8
6 14 6 13 16 8 6 6 8 8 7 5 9 7 12 7 10 13 11 12 13 11 11 13 12 11 14 18 16 14 11 10 11 11 9 8 7 8 9 9 10 10 9 8
2 13 6 8 12 9 12 8 11 11 13 12 13 15 6 5 4 8 10 13 14 16 16 15 16 16 16 14 13 13 12 12 11 11 10 9 9 9 10 10 9 10 9 8
5 4 5 15 6 5 6 13 12 7 6 10 10 6 4 7 7 7 4 1 4 13 16 15 18 17 16 16 15 15 15 14 14 12 10 9 9 9 10 10 9 9 9 8
8 4 2 4 3 7 6 3 5 8 9 8 3 3 2 5 6 7 6 5 5 7 8 13 14 15 17 16 15 14 14 15 14 14 12 10 9 9 8 10 9 7 7 7
15 10 6 4 5 6 6 7 8 8 5 3 5 3 1 6 7 8 3 2 5 6 8 9 11 14 16 17 17 16 14 14 14 14 12 11 11 10 9 9 9 7 7 7
13 10 7 4 3 7 5 1 5 5 4 6 4 4 3 1 1 6 6 3 2 2 4 6 9 12 14 14 16 17 14 13 13 13 12 11 10 10 9 8 9 5 7 8
9 4 8 7 5 6 6 5 4 5 7 5 3 4 3 4 7 6 4 3 3 2 8 10 10 10 12 14 15 15 14 13 13 13 13 11 9 10 10 9 7 6 7 7
11 8 6 6 5 10 7 3 9 7 3 4 3 3 6 7 7 6 4 4 6 7 8 11 11 12 14 13 14 13 12 12 13 13 12 11 11 9 9 10 7 8 7 6
5 7 8 8 8 4 5 5 3 4 3 3 3 5 5 7 5 6 4 6 7 7 8 10 12 13 11 12 13 14 12 13 13 13 12 11 11 10 10 9 8 7 5 4
2 3 3 4 6 6 5 2 2 2 4 4 5 5 5 7 5 7 5 6 6 8 10 10 13 12 11 9 9 13 14 13 14 13 12 10 10 9 7 6 5 5 4 4
3 4 5 4 2 3 4 5 4 5 3 4 6 6 7 8 7 7 7 7 8 7 7 11 11 11 11 11 12 13 13 14 13 12 11 9 8 8 7 6 5 5 2 5
4 4 4 7 5 6 5 6 5 6 7 7 6 8 8 7 9 9 9 8 8 9 10 10 11 12 12 11 12 12 14 13 14 11 9 7 7 7 6 6 2 8 8 10
Wind_Direction
207 151 207 210 209 223 199 220 249 272 297 300 275 278 279 277 253 254 250 216 206 210 212 164 155 152 146 152 157 161 153 159 145 144 139 132 126 115 86 82 87 84 81 73
323 240 224 221 210 219 233 255 267 276 248 269 278 280 278 264 259 235 233 214 219 185 176 162 160 161 172 166 163 159 162 159 159 149 125 116 130 97 91 91 77 69 68 71
216 221 106 208 220 230 230 235 250 262 289 267 299 284 259 245 251 262 229 226 205 199 186 177 176 176 168 169 165 162 157 156 145 123 119 99 100 88 91 78 78 67 76 67
245 211 233 263 250 204 259 201 237 258 274 266 146 288 243 282 258 240 256 228 222 198 189 176 173 176 175 165 145 139 142 139 136 144 136 140 136 131 111 109 107 92 80 76
224 164 197 219 243 204 278 208 224 212 227 283 178 272 56 22 316 281 274 261 231 200 185 185 180 164 152 142 135 134 135 133 139 136 139 129 115 114 117 110 99 83 69 67
240 277 192 201 231 198 243 308 310 253 146 254 197 202 282 251 221 242 255 294 10 258 182 141 132 130 130 126 127 131 133 119 124 122 129 130 130 132 124 117 111 106 95 81
307 218 235 187 238 200 139 84 304 284 190 245 150 206 249 342 19 17 0 355 351 322 148 139 142 144 139 137 132 127 125 119 124 119 118 123 126 126 124 127 123 117 102 89
207 304 174 171 159 189 177 166 181 231 220 269 154 233 196 41 37 35 29 13 20 24 45 92 126 135 135 131 133 127 124 117 116 117 114 116 116 123 115 117 118 111 105 102
233 274 299 193 201 139 285 156 233 251 276 254 245 257 204 59 37 19 9 17 18 32 70 104 117 130 135 132 131 131 128 124 121 119 117 115 123 125 119 113 114 117 112 102
355 302 278 315 31 350 108 72 350 1 243 226 241 207 206 48 31 25 22 15 13 12 33 84 141 141 132 134 131 130 131 131 130 128 124 122 125 124 117 118 118 108 101 106
3 215 296 337 258 149 33 130 60 251 261 269 323 108 58 61 37 357 31 73 98 63 35 35 15 74 123 126 126 127 127 127 129 124 126 122 126 120 115 122 115 112 109 104
195 355 284 239 283 5 179 252 179 187 227 249 307 114 108 67 27 324 298 283 67 103 87 56 53 56 102 126 135 127 133 128 130 136 129 125 125 125 126 120 120 116 110 104
194 164 335 323 7 348 219 122 120 125 59 219 171 238 198 206 246 218 246 238 167 216 144 112 63 44 49 58 102 134 140 137 132 129 123 126 134 131 122 120 116 110 111 109
300 198 202 236 242 167 198 176 199 172 144 195 226 307 205 225 235 222 238 247 214 195 176 168 159 188 169 165 186 158 151 148 141 132 131 132 129 129 124 115 110 107 100 92
226 256 239 246 252 245 217 203 202 209 220 192 264 254 268 253 235 247 235 228 212 214 198 194 199 187 192 186 166 162 162 149 139 129 126 122 120 111 109 109 107 102 96 85
209 240 202 252 248 241 249 235 239 240 251 245 256 268 270 260 235 266 243 233 222 213 214 206 195 189 192 186 168 156 148 143 136 131 128 130 118 117 118 111 105 105 99 96
205 205 225 254 240 255 245 229 222 213 213 221 237 260 309 313 306 265 273 241 273 229 227 211 203 191 183 179 166 160 150 141 135 128 128 119 118 123 121 120 115 108 104 105
223 208 199 231 222 242 252 196 180 201 233 228 213 120 291 286 278 261 245 245 236 267 258 230 199 180 176 168 156 147 148 136 134 132 129 123 127 137 132 115 112 104 110 109
222 228 228 234 215 299 289 220 197 183 213 187 156 162 294 324 329 300 228 222 293 274 268 254 179 167 157 152 145 141 136 133 135 134 134 145 149 136 130 121 119 132 123 114
195 195 200 180 199 216 250 343 99 100 251 185 187 206 199 282 337 260 316 100 105 45 50 74 108 131 141 145 138 137 140 139 135 138 141 142 147 137 129 131 126 142 124 120
186 182 216 208 225 275 223 186 89 153 233 182 206 241 266 207 207 248 332 42 90 97 113 107 121 136 134 139 140 139 140 145 140 134 132 139 139 133 130 131 137 121 116 116
174 171 197 208 197 253 183 136 176 213 184 202 207 235 265 253 264 262 254 131 121 123 125 121 124 135 146 141 136 136 141 135 131 134 142 136 137 138 142 135 136 126 117 147
184 191 172 182 203 207 197 175 159 141 195 219 223 262 270 287 257 235 226 157 150 156 157 145 139 139 144 144 144 144 139 133 136 144 140 143 141 142 142 142 135 124 140 129
182 158 192 135 198 208 191 154 242 269 250 254 243 255 269 267 250 228 201 170 173 171 165 156 145 142 138 131 132 131 136 144 148 143 145 141 136 136 143 140 137 143 151 116
205 129 172 272 4 58 243 227 225 288 236 274 275 265 262 267 244 205 190 180 168 162 157 153 148 144 139 132 132 137 146 155 146 144 144 147 144 143 147 151 160 157 174 147
203 184 161 226 198 184 193 214 211 243 258 270 247 277 265 238 248 182 186 174 158 156 154 150 141 135 136 142 142 151 160 158 147 146 146 150 148 156 152 149 120 169 161 173